Hourly Weather Bolshie Yaki

Today, 4 August, Wednesday

Time Temperature Precipitation Wind Pressure Humidity
00:00 +19°C° 0.3 mm 2 mps 748 mmHg 90%
01:00 +20°C° 0 mm 1 mps 749 mmHg 91%
02:00 +20°C° 0 mm 1 mps 749 mmHg 92%
03:00 +20°C° 0 mm 1 mps 749 mmHg 93%
04:00 +20°C° 0.1 mm 1 mps 749 mmHg 92%
05:00 +21°C° 0.1 mm 1 mps 749 mmHg 90%
06:00 +22°C° 0.1 mm 1 mps 750 mmHg 89%
07:00 +23°C° 0 mm 2 mps 750 mmHg 82%
08:00 +24°C° 0 mm 2 mps 750 mmHg 75%
09:00 +26°C° 0 mm 2 mps 750 mmHg 68%
10:00 +25°C° 0.3 mm 2 mps 750 mmHg 72%
11:00 +24°C° 0.3 mm 2 mps 750 mmHg 75%
12:00 +23°C° 0.3 mm 2 mps 750 mmHg 79%
13:00 +22°C° 0.3 mm 3 mps 750 mmHg 79%
14:00 +22°C° 0.3 mm 3 mps 750 mmHg 80%
15:00 +22°C° 0.3 mm 4 mps 750 mmHg 80%
16:00 +21°C° 0.1 mm 3 mps 751 mmHg 81%
17:00 +21°C° 0.1 mm 3 mps 751 mmHg 82%
18:00 +20°C° 0.1 mm 2 mps 751 mmHg 82%
19:00 +20°C° 0 mm 2 mps 751 mmHg 85%
20:00 +19°C° 0 mm 2 mps 751 mmHg 88%
21:00 +18°C° 0 mm 2 mps 751 mmHg 91%
22:00 +18°C° 0 mm 1 mps 751 mmHg 90%
23:00 +18°C° 0 mm 1 mps 751 mmHg 90%

Tomorrow, 5 August, Thursday

Time Temperature Precipitation Wind Pressure Humidity
00:00 +18°C° 0 mm 1 mps 751 mmHg 89%
01:00 +18°C° 0 mm 1 mps 751 mmHg 89%
02:00 +16°C° 0 mm 1 mps 751 mmHg 88%
03:00 +16°C° 0 mm 1 mps 751 mmHg 88%
04:00 +18°C° 0 mm 1 mps 751 mmHg 85%
05:00 +19°C° 0 mm 1 mps 752 mmHg 83%
06:00 +19°C° 0 mm 1 mps 752 mmHg 80%
07:00 +19°C° 0 mm 2 mps 752 mmHg 74%
08:00 +20°C° 0 mm 2 mps 752 mmHg 68%
09:00 +21°C° 0 mm 3 mps 752 mmHg 62%
10:00 +22°C° 0 mm 3 mps 752 mmHg 56%
11:00 +24°C° 0 mm 3 mps 752 mmHg 51%
12:00 +25°C° 0 mm 4 mps 753 mmHg 46%
13:00 +25°C° 0 mm 4 mps 753 mmHg 46%
14:00 +24°C° 0 mm 3 mps 753 mmHg 46%
15:00 +24°C° 0 mm 3 mps 753 mmHg 45%
16:00 +24°C° 0 mm 3 mps 753 mmHg 47%
17:00 +23°C° 0 mm 2 mps 753 mmHg 49%
18:00 +21°C° 0 mm 2 mps 753 mmHg 51%
19:00 +20°C° 0 mm 2 mps 753 mmHg 56%
20:00 +18°C° 0 mm 2 mps 753 mmHg 60%
21:00 +17°C° 0 mm 2 mps 753 mmHg 65%
22:00 +16°C° 0 mm 2 mps 753 mmHg 67%
23:00 +15°C° 0 mm 1 mps 754 mmHg 69%

Day after tomorrow, 6 August, Friday

Time Temperature Precipitation Wind Pressure Humidity
00:00 +14°C° 0 mm 1 mps 754 mmHg 72%
01:00 +14°C° 0 mm 1 mps 754 mmHg 73%
02:00 +14°C° 0 mm 1 mps 754 mmHg 75%
03:00 +13°C° 0 mm 1 mps 754 mmHg 77%
04:00 +14°C° 0 mm 1 mps 754 mmHg 73%
05:00 +15°C° 0 mm 1 mps 754 mmHg 70%
06:00 +16°C° 0 mm 1 mps 755 mmHg 67%
07:00 +19°C° 0 mm 1 mps 755 mmHg 58%
08:00 +20°C° 0 mm 2 mps 755 mmHg 50%
09:00 +23°C° 0 mm 2 mps 755 mmHg 42%
10:00 +24°C° 0 mm 2 mps 755 mmHg 38%
11:00 +25°C° 0 mm 2 mps 755 mmHg 34%
12:00 +26°C° 0 mm 2 mps 755 mmHg 30%
13:00 +26°C° 0 mm 2 mps 754 mmHg 30%
14:00 +27°C° 0 mm 2 mps 754 mmHg 30%
15:00 +27°C° 0 mm 2 mps 754 mmHg 30%
16:00 +26°C° 0 mm 2 mps 754 mmHg 36%
17:00 +25°C° 0 mm 2 mps 754 mmHg 42%
18:00 +24°C° 0 mm 2 mps 754 mmHg 47%
19:00 +23°C° 0 mm 2 mps 754 mmHg 48%
20:00 +21°C° 0 mm 2 mps 754 mmHg 49%
21:00 +20°C° 0 mm 2 mps 754 mmHg 51%
22:00 +19°C° 0 mm 2 mps 754 mmHg 55%
23:00 +18°C° 0 mm 2 mps 755 mmHg 59%

7 August, Saturday

Time Temperature Precipitation Wind Pressure Humidity
00:00 +18°C° 0 mm 2 mps 755 mmHg 63%
01:00 +18°C° 0 mm 2 mps 755 mmHg 62%
02:00 +17°C° 0 mm 2 mps 755 mmHg 61%
03:00 +17°C° 0 mm 2 mps 755 mmHg 61%
04:00 +17°C° 0 mm 2 mps 755 mmHg 60%
05:00 +17°C° 0 mm 2 mps 755 mmHg 59%
06:00 +18°C° 0 mm 2 mps 755 mmHg 58%
07:00 +18°C° 0 mm 2 mps 756 mmHg 57%
08:00 +19°C° 0 mm 2 mps 756 mmHg 56%
09:00 +20°C° 0 mm 2 mps 756 mmHg 55%
10:00 +20°C° 0 mm 2 mps 756 mmHg 53%
11:00 +21°C° 0 mm 2 mps 756 mmHg 51%
12:00 +23°C° 0 mm 2 mps 756 mmHg 50%
13:00 +24°C° 0 mm 2 mps 756 mmHg 49%
14:00 +24°C° 0 mm 1 mps 756 mmHg 48%
15:00 +25°C° 0 mm 1 mps 756 mmHg 46%
16:00 +24°C° 0 mm 1 mps 756 mmHg 50%
17:00 +23°C° 0 mm 1 mps 756 mmHg 54%
18:00 +23°C° 0 mm 1 mps 755 mmHg 57%
19:00 +22°C° 0 mm 1 mps 756 mmHg 59%
20:00 +21°C° 0 mm 1 mps 756 mmHg 60%
21:00 +20°C° 0 mm 1 mps 756 mmHg 61%
22:00 +20°C° 0 mm 1 mps 756 mmHg 64%
23:00 +18°C° 0 mm 2 mps 756 mmHg 67%

8 August, Sunday

Time Temperature Precipitation Wind Pressure Humidity
00:00 +17°C° 0 mm 2 mps 756 mmHg 70%
01:00 +17°C° 0 mm 2 mps 756 mmHg 70%
02:00 +16°C° 0 mm 2 mps 756 mmHg 70%
03:00 +16°C° 0 mm 2 mps 757 mmHg 71%
04:00 +16°C° 0 mm 2 mps 757 mmHg 69%
05:00 +17°C° 0 mm 2 mps 757 mmHg 67%
06:00 +18°C° 0 mm 2 mps 757 mmHg 65%
07:00 +19°C° 0 mm 3 mps 757 mmHg 61%
08:00 +20°C° 0 mm 3 mps 757 mmHg 57%
09:00 +22°C° 0 mm 3 mps 757 mmHg 53%
10:00 +24°C° 0 mm 3 mps 757 mmHg 49%
11:00 +26°C° 0 mm 3 mps 756 mmHg 45%
12:00 +28°C° 0 mm 3 mps 756 mmHg 42%
13:00 +29°C° 0 mm 3 mps 756 mmHg 40%
14:00 +29°C° 0 mm 3 mps 756 mmHg 38%
15:00 +30°C° 0 mm 3 mps 755 mmHg 37%
16:00 +29°C° 0 mm 3 mps 755 mmHg 40%
17:00 +28°C° 0 mm 2 mps 755 mmHg 44%
18:00 +27°C° 0 mm 2 mps 755 mmHg 48%
19:00 +26°C° 0 mm 2 mps 755 mmHg 50%
20:00 +25°C° 0 mm 2 mps 755 mmHg 52%
21:00 +23°C° 0 mm 2 mps 755 mmHg 55%
22:00 +23°C° 0 mm 2 mps 755 mmHg 56%
23:00 +21°C° 0 mm 2 mps 755 mmHg 56%

9 August, Monday

Time Temperature Precipitation Wind Pressure Humidity
00:00 +21°C° 0 mm 3 mps 755 mmHg 57%
01:00 +20°C° 0 mm 2 mps 755 mmHg 59%
02:00 +20°C° 0 mm 2 mps 755 mmHg 62%
03:00 +19°C° 0 mm 2 mps 755 mmHg 64%
04:00 +20°C° 0 mm 2 mps 755 mmHg 63%
05:00 +20°C° 0 mm 2 mps 755 mmHg 62%
06:00 +22°C° 0 mm 1 mps 754 mmHg 61%
07:00 +24°C° 0 mm 2 mps 755 mmHg 56%
08:00 +26°C° 0 mm 2 mps 755 mmHg 52%
09:00 +28°C° 0 mm 3 mps 755 mmHg 47%
10:00 +29°C° 0 mm 3 mps 755 mmHg 44%
11:00 +30°C° 0 mm 3 mps 755 mmHg 42%
12:00 +32°C° 0 mm 4 mps 755 mmHg 39%
13:00 +33°C° 0 mm 4 mps 755 mmHg 39%
14:00 +33°C° 0 mm 4 mps 755 mmHg 38%
15:00 +33°C° 0 mm 4 mps 755 mmHg 38%
16:00 +32°C° 0 mm 4 mps 755 mmHg 40%
17:00 +30°C° 0 mm 3 mps 755 mmHg 43%
18:00 +28°C° 0 mm 3 mps 755 mmHg 45%
19:00 +26°C° 0 mm 3 mps 755 mmHg 51%
20:00 +24°C° 0 mm 2 mps 755 mmHg 58%
21:00 +21°C° 0 mm 2 mps 756 mmHg 64%
22:00 +20°C° 0 mm 2 mps 756 mmHg 69%
23:00 +19°C° 0 mm 2 mps 756 mmHg 74%
Show more

We Need Your Consent

Meteoprog and our Service Providers may store and access personal data such as cookies, device identifiers or other similar technologies on your device and process such data to personalise content and ads, as well as provide social media features and to analyse the traffic.

  • Store and/or access information on your device

    Cookies, device identifiers or other information can be stored or accessed on your device for the purposes indicated above.

  • Personalised ads and content, ad and content measurement, audience insights, and products development

    Ads and content can be personalised based on a profile. More data can be added to better personalise ads and content. Ad and content performance can be measured. Insights about the audience who saw the ads and content can be derived. Such data can be used to develop or improve user’s experience, systems and software.

By clicking ‘I Agree’ you will allow the use of indicated cookies, device identifiers, web beacons or other similar technologies. Your settings can be changed in the browser on your device.

For certain purposes, legitimate interests may be relied on, rather than consent. You can read more about this in our Privacy and Cookie Policy.